{"data":{"norad_id":68236,"intl_designator":"2026-054E","name":"STARLINK-37127","alt_names":[],"object_type":"PAYLOAD","status":"ACTIVE","operator":null,"country":"US","launch_date":"2026-03-17","launch_site_code":"AFETR","launch_vehicle":null,"mission":null,"orbit_class":"UNKNOWN","rcs_meters":null,"size_class":null,"mass_kg":null,"dimensions":null,"purposes":["comms"],"wikipedia_slug":null,"has_3d_model":false,"image_url":null,"decayed_at":null,"tle_current":{"epoch":"2026-05-24T15:57:39.519072Z","epoch_age_seconds":94183,"freshness":"FRESH","line1":"1 68236U 26054E   26144.66504073  .00018568  00000+0  43484-3 0  9993","line2":"2 68236  53.1589 301.9093 0001164  76.5122 283.6013 15.42178244 10651","mean_motion":15.42178244,"eccentricity":0.0001164,"inclination_deg":53.1589,"raan_deg":301.9093,"arg_perigee_deg":76.5122,"mean_anomaly_deg":283.6013,"bstar":0.00043484,"rev_number":1065,"period_min":93.374420602966,"perigee_km":438.88828909146,"apogee_km":440.47547732747,"semimajor_km":6817.8188832095,"source":"CELESTRAK","updated_at":"2026-05-25T13:38:21.883636Z"}}}